{"data":{"norad_id":63798,"epoch":"2026-05-24T21:02:50.247744Z","epoch_age_seconds":78962,"freshness":"FRESH","line1":"1 63798U 25091Z   26144.87697046  .00017188  00000+0  63229-3 0  9993","line2":"2 63798  43.0025 342.2932 0001530 260.9111  99.1567 15.27598705 60555","mean_motion":15.27598705,"eccentricity":0.000153,"inclination_deg":43.0025,"raan_deg":342.2932,"arg_perigee_deg":260.9111,"mean_anomaly_deg":99.1567,"bstar":0.00063229,"rev_number":6055,"period_min":94.265594444845,"perigee_km":481.94333420875,"apogee_km":484.04284001541,"semimajor_km":6861.1300871121,"source":"CELESTRAK","updated_at":"2026-05-25T13:38:20.137842Z"}}